Location: ????????
(41.2031°N, 22.5756°E)
Time: 15:55:13
(UTC+00:00)

Cosmos 1328 Rocket - Pass Details

Date: 01 December 2020
Orbit: 602 x 627 km, 82.5° (Epoch: 20 January)

Event Time Altitude Azimuth Distance (km) Brightness Sun altitude
Rises 15:55:06 0° 185° (S) 2,840 7.3 -10.0°
Reaches altitude 10° 15:57:17 10° 184° (S) 1,944 6.4 -10.4°
Maximum altitude 16:01:35 84° 97° (E) 616 3.5 -11.1°
Drops below altitude 10° 16:05:57 10° 9° (N) 1,972 5.9 -11.9°
Sets 16:08:11 0° 9° (N) 2,885 6.7 -12.3°
